Flight Information

DEPARTURE
FULLERTON, CA
Elevation:
96
Runways:
6/24 - 3121x75 - ASPH-G
H1 - 37x37 - CONC
Active PE Departure:
24
Current PE ATIS:
W
Altimeter:
29.84
Remarks:
ATIS:
125.05 714-870-6222
Ground:
121.8
Tower:
119.1
DESTINATION
,
Elevation:
TPA:
1000 (est.)


6775.3 NM74° True-14° Var59° HDG

Flight Plan:
(click to file on line)

1. Type
2. Aircraft Identification
3. Aircraft Type / Special Equipment
4. True Airspeed
kts
5. Departure Airport
(ICAO code)
6. Arriving Airport
(ICAO code)
7. Cruising Altitude
ft
8. Alternate Airport
(ICAO code)
9. Route of Flight
10. Remarks


00:00:00 Departure ATIS: Destination ATIS:

Clearance Limit:
Route:
Altitude: Expect in minutes
Frequency:
Transponder: (7500 Hijack / 7600 Lost Comms / 7700 Emergency)


KFUL 110353Z 18005KT 10SM CLR 16/12 A2984 RMK AO2 SLP104 T01610122
Time: 2021-04-11T03:53:00Z
1618113998
Winds: 180 @ 5 kts
Visibility: 10.0 sm
Clouds (AGL): CLR
Temperature: 16.1 C
Dew Point: 12.2 C
Pressure: 29.840551 in Hgbr


Notes:

Data extracted from FAA Digital Chart Supplement. Effective: 0901Z Thursday, Feb 25, 2021 to 0901Z Thursday, APR 22, 2021
Current ATIS data is provided courtisy of PilotEdge.